#timestamp,LO_Frequency,Hit,StdDev 
1635332415.8,286047002.5,N
1635332435.6,286047002.0,N
1635332455.5,286047001.9,N
1635332475.3,286047002.5,N
1635332495.2,286047002.3,N
1635332515.9,286047002.7,N
1635332535.7,286047001.5,N
1635332555.6,286047002.0,N
1635332575.4,286046999.8,N
1635332595.2,286047000.9,N
1635332615.1,286047000.9,N
1635332616.0,286047000.9,N
1635332635.8,286047001.2,N
1635332655.7,286046998.1,N
1635332675.5,286047000.5,N
1635332695.3,286047000.7,N
1635332715.2,286047000.6,N
1635332735.0,286046998.9,N
1635332735.9,286046998.9,N
1635332755.8,286046998.8,N
1635332775.6,286046998.8,N
1635332795.4,286047001.2,N
1635332815.3,286046999.4,N
1635332835.1,286046997.2,N
1635332855.9,286046999.4,N
1635332875.7,286046999.1,N
1635332895.5,286046996.6,N
1635332915.4,286046998.0,N
1635332935.2,286046995.2,Y
1635332955.0,286046994.9,P
1635332955.9,286046994.9,N
1635332975.8,286046996.1,N
1635332995.6,286046993.4,Y
1635333015.5,286046996.6,P
1635333035.3,286046998.0,P
1635333055.1,286046999.1,N
1635333075.9,286046996.7,Y
1635333095.7,286046999.0,P
1635333115.6,286046998.1,N
1635333135.4,286047001.1,N
1635333155.2,286047000.6,N
1635333175.1,286047000.2,N
1635333176.0,286047000.2,N
1635333195.8,286047000.0,N
1635333215.6,286047001.9,N
1635333235.5,286047001.9,N
1635333255.3,286047001.9,N
1635333275.2,286047001.8,N
1635333295.9,286047001.8,N
1635333315.7,286047001.6,N
1635333335.6,286047001.4,N
1635333355.4,286047003.1,N
1635333375.3,286047002.0,N
1635333395.1,286047001.4,N
1635333396.0,286047001.4,N
1635333415.8,286047001.3,N
1635333435.7,286047004.2,Y
1635333455.5,286047003.7,P
1635333475.4,286047004.3,P
1635333495.2,286047001.6,N
1635333515.0,286047001.5,N
1635333515.9,286047001.5,N
1635333535.8,286047001.4,N
1635333555.6,286047003.9,Y
1635333575.4,286047000.0,P
1635333595.3,286047000.0,N
1635333615.1,286047002.5,N
1635333635.9,286047000.2,N
1635333655.7,286046998.6,N
1635333675.5,286046998.5,N
1635333695.4,286047000.2,N
1635333715.2,286047000.9,N
1635333735.0,286046999.9,N
1635333736.0,286046999.9,N
1635333755.8,286046999.7,N
1635333775.6,286046998.2,N
1635333795.5,286047001.0,N
1635333815.3,286047000.6,N
1635333835.2,286047002.0,N
1635333855.9,286047002.5,N
1635333875.7,286047002.3,N
1635333895.6,286047002.1,N
1635333915.4,286047004.3,Y
1635333935.3,286047002.0,P
1635333955.1,286047002.4,P
1635333975.8,286047002.2,N
1635333995.7,286047001.4,N
1635334015.5,286047001.5,N
1635334035.4,286047001.9,Y
1635334055.2,286046998.9,P
1635334075.0,286046998.7,N
1635334075.9,286046998.7,N
1635334095.8,286046998.7,N
1635334115.6,286046998.9,N
1635334135.4,286047001.2,N
1635334155.3,286047001.1,N
1635334175.1,286047000.8,N
1635334195.9,286047000.4,N
1635334215.7,286046999.7,N
1635334235.5,286047002.2,N
1635334255.4,286047002.4,N
1635334275.2,286047001.5,N
1635334295.0,286047003.7,N
1635334296.0,286047003.7,N
1635334315.8,286047001.6,N
1635334335.6,286047001.5,N
1635334355.5,286047004.0,N
1635334375.3,286047001.3,N
1635334395.1,286047003.5,N
1635334415.9,286047001.3,N
1635334435.7,286047004.2,N
1635334455.6,286047002.1,N
1635334475.4,286047000.2,N
1635334495.2,286047000.4,N
1635334515.1,286047000.2,N
1635334516.0,286047000.2,N
1635334535.8,286047002.5,N
1635334555.6,286047002.1,N
1635334575.5,286046999.7,N
1635334595.3,286047002.5,N
1635334615.2,286047002.1,N
1635334635.9,286047000.2,N
1635334655.7,286046999.9,N
1635334675.6,286047000.1,N
1635334695.4,286046999.9,N
1635334715.3,286047001.1,N
1635334735.1,286047000.4,N
1635334736.0,286047000.4,N
1635334755.8,286046999.8,N
1635334775.7,286047000.2,N
1635334795.5,286047000.2,N
1635334815.3,286047002.5,N
1635334835.2,286047000.1,N
1635334855.0,286047002.6,N
1635334855.9,286047002.6,N
1635334875.8,286047002.8,N
1635334895.6,286047002.1,N
1635334915.4,286047002.7,N
1635334935.3,286047000.5,N
1635334955.1,286047000.3,N
1635334975.8,286047001.1,N
1635334995.7,286047001.2,N
1635335015.5,286047000.7,N
1635335035.4,286047001.2,N
1635335055.2,286047001.0,N
1635335075.0,286047000.4,N
1635335075.9,286047000.4,N
1635335095.8,286047002.7,N
1635335115.6,286047002.0,N
1635335135.5,286047001.4,N
1635335155.3,286047001.9,N
1635335175.1,286047001.8,N
1635335195.9,286047001.5,N
1635335215.7,286047001.4,N
1635335235.5,286047001.4,N
1635335255.4,286047002.5,N
1635335275.2,286047002.0,N
1635335295.1,286047000.1,N
1635335296.0,286047000.1,N
1635335315.8,286047002.6,N
1635335335.6,286047004.3,Y
1635335355.5,286047000.8,P
1635335375.3,286046998.3,P
1635335395.1,286046999.6,N
1635335415.9,286046998.5,N
1635335435.7,286047001.2,N
1635335455.6,286047000.3,N
1635335475.4,286047000.1,N
1635335495.2,286047000.3,N
1635335515.1,286047000.9,N
1635335516.0,286047000.9,N
1635335535.8,286047000.0,N
1635335555.7,286046999.9,N
1635335575.5,286047001.0,N
1635335595.3,286047000.8,N
1635335615.2,286047000.7,N
1635335635.0,286046999.9,N
1635335635.9,286046999.9,N
1635335655.8,286047002.8,Y
1635335675.6,286047000.1,P
1635335695.4,286047002.8,P
1635335715.3,286047000.1,N
1635335735.1,286046999.9,N
1635335755.9,286046998.5,N
1635335775.7,286046998.6,N
1635335795.5,286047000.8,N
1635335815.4,286047000.4,N
1635335835.2,286047000.9,N
1635335855.1,286047000.0,N
1635335856.0,286047000.0,N
1635335875.8,286047000.1,N
1635335895.6,286046999.9,N
1635335915.5,286047000.6,N
1635335935.3,286047001.1,N
1635335955.1,286046998.2,N
1635335975.9,286046999.9,N
1635335995.7,286047000.8,N
